Flag for U.S.A. Weather past 2 weeks in Santa Fe, New Mexico, U.S.A.

Now
42 °F

Clear.


Feels Like: 37 °F
Forecast: 46 / 65 °F
Wind: 8 mph from Northeast

Location: Santa Fe County Municipal Airport

Current Time: Oct 20, 2014 at 7:14:03 AM

Latest Report: Oct 20, 2014 at 5:53 AM


Visibility: 10 mi

Pressure: 30.06 "Hg

Humidity: 85%

Dew point: 38 °F

Location of Santa FeLocation

Historic Weather in Santa Fe — Graph

°F

Santa Fe temperature yesterday

Maximum temperature yesterday: 70 °F (at 2:53 PM)
Minimum temperature yesterday: 39 °F (at 6:53 AM)
Average temperature yesterday: 54 °F

Past Weeks' High & Low Weather Summary

 TemperatureHumidityPressure
High80 °F (Oct 6, 4:53 PM)96% (Oct 9, 6:01 AM)30.25 "Hg (Oct 9, 6:01 AM)
Low32 °F (Oct 14, 6:53 AM)7% (Oct 6, 5:53 PM)29.56 "Hg (Oct 12, 12:53 PM)
Average55 °F48%29.96 "Hg
* Reported Oct 5 5:53 AM — Oct 20 5:53 AM, Santa Fe, Weather by CustomWeather, © 2014

Note: Actual official high and low records may vary slightly from our data, if they occured in-between our weather recording intervals... More about our weather records

Advertising

Santa Fe weather history for previous 24 hours

 ConditionsComfort  
Time TempWeatherWind HumidityBarometerVisibility
5:53 AM
Oct 20
42 °FClear.8 mph85%30.06 "Hg10 mi
4:53 AM46 °FPassing clouds.No wind79%30.01 "Hg10 mi
3:53 AM49 °FOvercast.5 mph69%29.99 "Hg10 mi
2:53 AM47 °FOvercast.5 mph74%29.98 "Hg10 mi
1:53 AM43 °FPassing clouds.6 mph79%30.00 "Hg10 mi
12:53 AM44 °FClear.7 mph76%30.01 "Hg10 mi
11:53 PM
Oct 19
46 °FClear.8 mph71%30.01 "Hg10 mi
10:53 PM45 °FClear.5 mph74%30.02 "Hg10 mi
8:53 PM53 °FClear.6 mph61%30.02 "Hg10 mi
7:53 PM55 °FClear.9 mph59%30.06 "Hg10 mi
6:53 PM59 °FThunderstorms. Mostly cloudy.3 mph49%30.06 "Hg10 mi
5:53 PM60 °FThundershowers. Mostly cloudy.20 mph44%30.02 "Hg10 mi
4:53 PM65 °FSunny.20 mph44%29.96 "Hg10 mi
3:53 PM68 °FSunny.15 mph39%29.91 "Hg10 mi
2:53 PM70 °FSunny.14 mph35%29.90 "Hg10 mi
1:53 PM69 °FSunny.13 mph38%29.92 "Hg10 mi
12:53 PM66 °FSunny.No wind43%29.96 "Hg10 mi
11:53 AM63 °FSunny.8 mph48%30.00 "Hg10 mi
10:53 AM59 °FSunny.13 mph56%30.04 "Hg10 mi
9:53 AM55 °FSunny.14 mph64%30.06 "Hg10 mi
8:53 AM49 °FSunny.12 mph74%30.07 "Hg10 mi
7:53 AM43 °FClear.6 mph86%30.08 "Hg10 mi
Weather by CustomWeather, © 2014

See weather overviewHow to use our weather pages